| time (UTC) | temp C | wind direction | speed KPH | gust KPH | rain 1hr cm | rain 24hr cm | rain mn cm | humidity % | barometer mb |
| 20260901124556 | 22 | 175 | 0.0 | 8.0 | 0.00 | 0.20 | 0.00 | 97 | 1012.1 |
| 20260901123022 | 21 | 230 | 3.2 | 8.0 | 0.00 | 0.20 | 0.00 | 96 | 1011.9 |
| 20260901121555 | 21 | 181 | 0.0 | 6.4 | 0.00 | 0.20 | 0.00 | 96 | 1011.9 |
| 20260901114525 | 20 | 192 | 0.0 | 3.2 | 0.00 | 0.20 | 0.00 | 95 | 1011.5 |
| 20260901113054 | 20 | 192 | 0.0 | 3.2 | 0.00 | 0.20 | 0.00 | 95 | 1011.3 |
| 20260901111523 | 20 | 193 | 0.0 | 4.8 | 0.00 | 0.20 | 0.00 | 95 | 1011.2 |
| 20260901110046 | 20 | 197 | 0.0 | 0.0 | 0.00 | 0.20 | 0.00 | 94 | 1011.3 |
| 20260901104513 | 20 | 200 | 1.6 | 4.8 | 0.00 | 0.20 | 0.00 | 94 | 1011.2 |
| 20260901103044 | 20 | 200 | 0.0 | 1.6 | 0.00 | 0.20 | 0.00 | 94 | 1011.1 |
| 20260901101515 | 20 | 200 | 0.0 | 1.6 | 0.00 | 0.20 | 0.00 | 94 | 1011.1 |
| 20260901100030 | 20 | 197 | 0.0 | 1.6 | 0.00 | 0.20 | 0.00 | 94 | 1011.3 |
| 20260901094556 | 20 | 197 | 0.0 | 0.0 | 0.00 | 0.20 | 0.00 | 94 | 1011.0 |
| 20260901093028 | 20 | 197 | 0.0 | 0.0 | 0.00 | 0.20 | 0.00 | 94 | 1011.2 |
| 20260901091606 | 20 | 197 | 0.0 | 0.0 | 0.00 | 0.20 | 0.00 | 94 | 1011.0 |
| 20260901090020 | 21 | 197 | 0.0 | 0.0 | 0.00 | 0.20 | 0.00 | 94 | 1011.0 |
| 20260901084551 | 21 | 197 | 0.0 | 3.2 | 0.00 | 0.20 | 0.00 | 94 | 1011.0 |
| 20260901083023 | 21 | 198 | 0.0 | 1.6 | 0.00 | 0.20 | 0.00 | 94 | 1011.0 |
| 20260901081555 | 21 | 198 | 0.0 | 1.6 | 0.00 | 0.20 | 0.00 | 94 | 1011.0 |
| 20260901080015 | 21 | 198 | 0.0 | 4.8 | 0.00 | 0.20 | 0.00 | 93 | 1011.0 |
| 20260901074542 | 21 | 190 | 0.0 | 3.2 | 0.00 | 0.20 | 0.00 | 93 | 1010.9 |
| 20260901073023 | 21 | 190 | 0.0 | 3.2 | 0.00 | 0.20 | 0.00 | 93 | 1011.0 |
| 20260901071549 | 21 | 194 | 0.0 | 4.8 | 0.00 | 0.20 | 0.00 | 93 | 1010.9 |
| 20260901070002 | 21 | 188 | 0.0 | 1.6 | 0.00 | 0.20 | 0.00 | 92 | 1011.0 |
| 20260901064542 | 21 | 191 | 0.0 | 4.8 | 0.00 | 0.20 | 0.00 | 92 | 1011.0 |
| 20260901063006 | 21 | 188 | 0.0 | 3.2 | 0.00 | 0.20 | 0.00 | 91 | 1011.0 |
| 20260901061539 | 21 | 183 | 0.0 | 6.4 | 0.00 | 0.20 | 0.00 | 91 | 1011.0 |
| 20260901060054 | 21 | 211 | 0.0 | 4.8 | 0.00 | 0.20 | 0.00 | 91 | 1011.0 |
| 20260901054525 | 21 | 196 | 0.0 | 0.0 | 0.00 | 0.20 | 0.00 | 90 | 1011.1 |
| 20260901053050 | 21 | 196 | 0.0 | 0.0 | 0.00 | 0.20 | 0.00 | 90 | 1011.2 |
| 20260901051522 | 21 | 196 | 0.0 | 0.0 | 0.00 | 0.20 | 0.00 | 90 | 1011.2 |
| 20260901050032 | 21 | 199 | 0.0 | 0.0 | 0.00 | 0.20 | 0.00 | 89 | 1011.3 |
| 20260901044501 | 22 | 199 | 0.0 | 0.0 | 0.00 | 0.20 | 0.00 | 89 | 1011.3 |
| 20260901043033 | 22 | 199 | 0.0 | 0.0 | 0.00 | 0.20 | 0.00 | 89 | 1011.2 |
| 20260901041601 | 22 | 199 | 0.0 | 0.0 | 0.00 | 0.20 | 0.00 | 88 | 1011.3 |
| 20260901040016 | 22 | 199 | 0.0 | 0.0 | 0.00 | 0.20 | 0.20 | 88 | 1011.4 |
| 20260901034550 | 23 | 199 | 0.0 | 0.0 | 0.00 | 0.20 | 0.20 | 87 | 1011.4 |
| 20260901033031 | 23 | 199 | 0.0 | 0.0 | 0.00 | 0.20 | 0.20 | 87 | 1011.6 |
| 20260901031552 | 23 | 199 | 0.0 | 1.6 | 0.00 | 0.20 | 0.20 | 87 | 1011.4 |
| 20260901030007 | 23 | 199 | 0.0 | 1.6 | 0.00 | 0.20 | 0.20 | 88 | 1011.4 |
| 20260901024539 | 23 | 199 | 0.0 | 8.0 | 0.00 | 0.20 | 0.20 | 87 | 1011.2 |
| 20260901023008 | 23 | 187 | 0.0 | 8.0 | 0.00 | 0.20 | 0.20 | 87 | 1011.2 |
| 20260901021551 | 23 | 198 | 0.0 | 11.3 | 0.00 | 0.20 | 0.20 | 86 | 1011.2 |
| 20260901020057 | 24 | 180 | 1.6 | 6.4 | 0.00 | 0.20 | 0.20 | 86 | 1011.3 |
| 20260901014529 | 24 | 202 | 1.6 | 6.4 | 0.00 | 0.20 | 0.20 | 85 | 1011.3 |
| 20260901013003 | 24 | 184 | 0.0 | 11.3 | 0.00 | 0.20 | 0.20 | 84 | 1011.3 |
| 20260901011537 | 25 | 242 | 1.6 | 6.4 | 0.00 | 0.20 | 0.20 | 83 | 1011.2 |
| 20260901010056 | 25 | 200 | 1.6 | 6.4 | 0.00 | 0.20 | 0.20 | 83 | 1010.9 |
| 20260901004522 | 25 | 219 | 0.0 | 8.0 | 0.00 | 0.20 | 0.20 | 83 | 1010.9 |
| 20260901003104 | 25 | 231 | 0.0 | 11.3 | 0.00 | 0.20 | 0.20 | 83 | 1010.9 |
| 20260901001528 | 25 | 207 | 1.6 | 12.9 | 0.00 | 0.20 | 0.20 | 82 | 1010.9 |
| 20260901000027 | 26 | 219 | 3.2 | 9.7 | 0.00 | 0.20 | 0.20 | 82 | 1010.9 |
| 20260831234559 | 26 | 248 | 4.8 | 14.5 | 0.00 | 0.20 | 0.20 | 81 | 1010.6 |
| 20260831233031 | 26 | 179 | 4.8 | 12.9 | 0.00 | 0.20 | 0.20 | 81 | 1010.5 |
| 20260831203033 | 25 | 157 | 4.8 | 16.1 | 0.00 | 0.20 | 0.20 | 84 | 1010.5 |
| 20260831201503 | 25 | 142 | 1.6 | 14.5 | 0.00 | 0.20 | 0.20 | 85 | 1010.6 |
| 20260831200021 | 24 | 182 | 1.6 | 14.5 | 0.00 | 0.20 | 0.20 | 89 | 1010.5 |
| 20260831194636 | 23 | 161 | 4.8 | 12.9 | 0.03 | 0.20 | 0.20 | 89 | 1010.6 |
| 20260831193027 | 24 | 131 | 1.6 | 11.3 | 0.03 | 0.20 | 0.20 | 89 | 1011.2 |
| 20260831191559 | 24 | 109 | 0.0 | 11.3 | 0.08 | 0.20 | 0.20 | 88 | 1011.1 |
| 20260831190009 | 23 | 140 | 0.0 | 1.6 | 0.08 | 0.20 | 0.20 | 87 | 1011.5 |
| 20260831184553 | 24 | 110 | 3.2 | 12.9 | 0.05 | 0.18 | 0.18 | 84 | 1011.4 |
| 20260831183018 | 25 | 176 | 0.0 | 4.8 | 0.05 | 0.18 | 0.18 | 82 | 1012.4 |
| 20260831181551 | 25 | 266 | 0.0 | 6.4 | 0.00 | 0.13 | 0.13 | 80 | 1012.5 |
| 20260831180013 | 25 | 166 | 1.6 | 8.0 | 0.00 | 0.13 | 0.13 | 81 | 1011.8 |
| 20260831174545 | 25 | 202 | 1.6 | 8.0 | 0.00 | 0.13 | 0.13 | 81 | 1011.8 |
| 20260831173016 | 25 | 188 | 1.6 | 14.5 | 0.00 | 0.13 | 0.13 | 83 | 1011.9 |
| 20260831171546 | 25 | 123 | 4.8 | 14.5 | 0.00 | 0.13 | 0.13 | 84 | 1011.9 |
| 20260831170100 | 24 | 130 | 6.4 | 17.7 | 0.00 | 0.13 | 0.13 | 86 | 1011.7 |
| 20260831164528 | 23 | 217 | 4.8 | 12.9 | 0.00 | 0.13 | 0.13 | 89 | 1012.2 |
| 20260831163058 | 23 | 177 | 1.6 | 17.7 | 0.00 | 0.13 | 0.13 | 92 | 1012.5 |
| 20260831161526 | 22 | 274 | 3.2 | 11.3 | 0.00 | 0.13 | 0.13 | 94 | 1012.7 |
| 20260831160043 | 22 | 155 | 4.8 | 14.5 | 0.00 | 0.13 | 0.13 | 94 | 1012.8 |
| 20260831154518 | 22 | 144 | 3.2 | 11.3 | 0.00 | 0.13 | 0.13 | 94 | 1013.0 |
| 20260831153038 | 21 | 120 | 1.6 | 11.3 | 0.05 | 0.13 | 0.13 | 94 | 1012.9 |
| 20260831151507 | 21 | 129 | 3.2 | 11.3 | 0.05 | 0.13 | 0.13 | 94 | 1013.1 |
| 20260831150021 | 21 | 161 | 3.2 | 14.5 | 0.13 | 0.13 | 0.13 | 93 | 1013.0 |
| 20260831144621 | 21 | 149 | 3.2 | 8.0 | 0.13 | 0.13 | 0.13 | 93 | 1013.2 |
| 20260831143023 | 21 | 144 | 1.6 | 9.7 | 0.08 | 0.08 | 0.08 | 93 | 1013.4 |
| 20260831141558 | 21 | 132 | 3.2 | 6.4 | 0.08 | 0.08 | 0.08 | 93 | 1013.0 |
| 20260831140013 | 21 | 136 | 0.0 | 4.8 | 0.00 | 0.28 | 0.00 | 93 | 1013.1 |
| 20260831134546 | 21 | 143 | 1.6 | 4.8 | 0.00 | 0.28 | 0.00 | 94 | 1013.3 |
| 20260831133015 | 21 | 159 | 0.0 | 3.2 | 0.00 | 0.28 | 0.00 | 94 | 1013.4 |
| 20260831131600 | 21 | 220 | 1.6 | 9.7 | 0.00 | 0.28 | 0.00 | 95 | 1013.4 |
| 20260831130006 | 21 | 155 | 3.2 | 11.3 | 0.00 | 1.19 | 0.00 | 95 | 1013.1 |